• In Germany
  • List of Countries
  • For 7 days
  • Water Temperature
  • Satellite Maps
  • Weather Map
  • Weather Widgets
  • user-avatar
    Login

    Hourly Weather Wien

    Today, 23 October, Tuesday

    Time Temperature Precipitation Wind Pressure Humidity
    00:00 +8°C° 0 mm 4 mps 751 mmHg 73%
    01:00 +8°C° 0 mm 4 mps 751 mmHg 74%
    02:00 +8°C° 0 mm 4 mps 751 mmHg 75%
    03:00 +8°C° 0 mm 4 mps 750 mmHg 77%
    04:00 +8°C° 0 mm 4 mps 750 mmHg 79%
    05:00 +7°C° 0 mm 4 mps 750 mmHg 81%
    06:00 +8°C° 0 mm 3 mps 750 mmHg 83%
    07:00 +7°C° 0 mm 3 mps 750 mmHg 84%
    08:00 +8°C° 0 mm 4 mps 749 mmHg 76%
    09:00 +10°C° 0 mm 5 mps 749 mmHg 69%
    10:00 +11°C° 0 mm 6 mps 748 mmHg 61%
    11:00 +13°C° 0 mm 6 mps 748 mmHg 56%
    12:00 +14°C° 0 mm 7 mps 747 mmHg 51%
    13:00 +15°C° 0 mm 7 mps 746 mmHg 46%
    14:00 +14°C° 0 mm 7 mps 746 mmHg 47%
    15:00 +14°C° 0 mm 7 mps 745 mmHg 49%
    16:00 +12°C° 0 mm 7 mps 745 mmHg 50%
    17:00 +12°C° 0.1 mm 7 mps 745 mmHg 54%
    18:00 +11°C° 0.1 mm 8 mps 744 mmHg 58%
    19:00 +11°C° 0.1 mm 8 mps 744 mmHg 61%
    20:00 +11°C° 0 mm 8 mps 744 mmHg 63%
    21:00 +11°C° 0 mm 9 mps 743 mmHg 64%
    22:00 +10°C° 0 mm 9 mps 743 mmHg 65%
    23:00 +11°C° 0 mm 9 mps 742 mmHg 64%

    Tomorrow, 24 October, Wednesday

    Time Temperature Precipitation Wind Pressure Humidity
    00:00 +11°C° 0 mm 10 mps 741 mmHg 64%
    01:00 +11°C° 0 mm 10 mps 741 mmHg 63%
    02:00 +11°C° 0 mm 10 mps 740 mmHg 63%
    03:00 +12°C° 0 mm 11 mps 739 mmHg 63%
    04:00 +12°C° 0 mm 11 mps 738 mmHg 63%
    05:00 +12°C° 0.2 mm 11 mps 738 mmHg 64%
    06:00 +12°C° 0.2 mm 11 mps 738 mmHg 65%
    07:00 +12°C° 0.2 mm 12 mps 737 mmHg 65%
    08:00 +12°C° 1.3 mm 11 mps 738 mmHg 68%
    09:00 +12°C° 1.3 mm 11 mps 738 mmHg 70%
    10:00 +11°C° 1.3 mm 10 mps 738 mmHg 72%
    11:00 +11°C° 1.8 mm 10 mps 739 mmHg 69%
    12:00 +11°C° 1.8 mm 10 mps 739 mmHg 66%
    13:00 +9°C° 1.8 mm 10 mps 739 mmHg 64%
    14:00 +10°C° 0.4 mm 9 mps 740 mmHg 61%
    15:00 +10°C° 0.4 mm 9 mps 741 mmHg 59%
    16:00 +9°C° 0.4 mm 8 mps 741 mmHg 57%
    17:00 +8°C° 0 mm 7 mps 742 mmHg 59%
    18:00 +6°C° 0 mm 7 mps 743 mmHg 61%
    19:00 +5°C° 0 mm 6 mps 744 mmHg 63%
    20:00 +5°C° 0 mm 6 mps 744 mmHg 65%
    21:00 +6°C° 0 mm 5 mps 745 mmHg 66%
    22:00 +6°C° 0 mm 5 mps 745 mmHg 68%
    23:00 +5°C° 0 mm 5 mps 745 mmHg 70%

    Day after tomorrow, 25 October, Thursday

    Time Temperature Precipitation Wind Pressure Humidity
    00:00 +5°C° 0 mm 5 mps 745 mmHg 72%
    01:00 +5°C° 0 mm 5 mps 745 mmHg 74%
    02:00 +6°C° 0 mm 5 mps 745 mmHg 75%
    03:00 +6°C° 0 mm 4 mps 745 mmHg 76%
    04:00 +6°C° 0 mm 4 mps 745 mmHg 77%
    05:00 +7°C° 0.1 mm 4 mps 744 mmHg 78%
    06:00 +8°C° 0.1 mm 4 mps 744 mmHg 78%
    07:00 +8°C° 0.1 mm 4 mps 744 mmHg 79%
    08:00 +10°C° 0 mm 5 mps 743 mmHg 75%
    09:00 +11°C° 0 mm 7 mps 743 mmHg 71%
    10:00 +13°C° 0 mm 8 mps 743 mmHg 67%
    11:00 +13°C° 0 mm 8 mps 742 mmHg 65%
    12:00 +15°C° 0 mm 8 mps 742 mmHg 62%
    13:00 +15°C° 0 mm 9 mps 742 mmHg 60%
    14:00 +13°C° 0 mm 8 mps 741 mmHg 61%
    15:00 +14°C° 0 mm 7 mps 741 mmHg 62%
    16:00 +14°C° 0 mm 7 mps 741 mmHg 62%
    17:00 +13°C° 0 mm 6 mps 741 mmHg 65%
    18:00 +11°C° 0 mm 6 mps 742 mmHg 68%
    19:00 +12°C° 0 mm 5 mps 742 mmHg 71%
    20:00 +12°C° 0 mm 5 mps 742 mmHg 72%
    21:00 +10°C° 0 mm 5 mps 742 mmHg 73%
    22:00 +10°C° 0 mm 5 mps 743 mmHg 74%
    23:00 +11°C° 0 mm 4 mps 743 mmHg 76%

    26 October, Friday

    Time Temperature Precipitation Wind Pressure Humidity
    00:00 +10°C° 0 mm 4 mps 743 mmHg 78%
    01:00 +10°C° 0 mm 3 mps 743 mmHg 79%
    02:00 +9°C° 0 mm 3 mps 742 mmHg 81%
    03:00 +9°C° 0 mm 2 mps 742 mmHg 82%
    04:00 +9°C° 0 mm 2 mps 742 mmHg 84%
    05:00 +8°C° 0 mm 2 mps 742 mmHg 84%
    06:00 +8°C° 0 mm 2 mps 742 mmHg 85%
    07:00 +9°C° 0 mm 1 mps 741 mmHg 86%
    08:00 +10°C° 0 mm 2 mps 741 mmHg 78%
    09:00 +13°C° 0 mm 2 mps 741 mmHg 70%
    10:00 +14°C° 0 mm 2 mps 740 mmHg 63%
    11:00 +14°C° 0 mm 3 mps 740 mmHg 60%
    12:00 +16°C° 0 mm 3 mps 739 mmHg 58%
    13:00 +17°C° 0 mm 3 mps 738 mmHg 56%
    14:00 +17°C° 0 mm 3 mps 738 mmHg 60%
    15:00 +16°C° 0 mm 3 mps 737 mmHg 63%
    16:00 +16°C° 0 mm 2 mps 737 mmHg 67%
    17:00 +14°C° 0 mm 2 mps 737 mmHg 73%
    18:00 +13°C° 0 mm 2 mps 736 mmHg 78%
    19:00 +12°C° 0 mm 2 mps 736 mmHg 84%
    20:00 +12°C° 0 mm 2 mps 736 mmHg 85%
    21:00 +12°C° 0 mm 1 mps 736 mmHg 85%
    22:00 +11°C° 0 mm 1 mps 736 mmHg 86%
    23:00 +11°C° 0 mm 1 mps 736 mmHg 85%

    27 October, Saturday

    Time Temperature Precipitation Wind Pressure Humidity
    00:00 +11°C° 0 mm 1 mps 735 mmHg 85%
    01:00 +11°C° 0 mm 1 mps 735 mmHg 84%
    02:00 +11°C° 0 mm 1 mps 735 mmHg 84%
    03:00 +10°C° 0 mm 1 mps 734 mmHg 84%
    04:00 +9°C° 0 mm 0 mps 734 mmHg 84%
    05:00 +9°C° 0 mm 0 mps 734 mmHg 84%
    06:00 +10°C° 0 mm 1 mps 734 mmHg 84%
    07:00 +11°C° 0 mm 1 mps 734 mmHg 83%
    08:00 +10°C° 0.7 mm 2 mps 734 mmHg 83%
    09:00 +10°C° 0.7 mm 2 mps 734 mmHg 84%
    10:00 +10°C° 0.7 mm 3 mps 734 mmHg 84%
    11:00 +9°C° 1 mm 3 mps 734 mmHg 84%
    12:00 +8°C° 1 mm 4 mps 734 mmHg 83%
    13:00 +8°C° 1 mm 4 mps 734 mmHg 83%
    14:00 +8°C° 0.9 mm 4 mps 734 mmHg 84%
    15:00 +8°C° 0.9 mm 3 mps 734 mmHg 85%
    16:00 +8°C° 0.9 mm 3 mps 734 mmHg 86%
    17:00 +8°C° 1 mm 3 mps 734 mmHg 86%
    18:00 +7°C° 1 mm 3 mps 734 mmHg 86%
    19:00 +6°C° 1 mm 4 mps 734 mmHg 86%
    20:00 +6°C° 1.2 mm 4 mps 733 mmHg 85%
    21:00 +5°C° 1.2 mm 4 mps 733 mmHg 84%
    22:00 +5°C° 1.2 mm 4 mps 733 mmHg 82%
    23:00 +5°C° 0.8 mm 5 mps 732 mmHg 82%

    28 October, Sunday

    Time Temperature Precipitation Wind Pressure Humidity
    00:00 +5°C° 0.8 mm 5 mps 732 mmHg 82%
    01:00 +3°C° 0.8 mm 5 mps 732 mmHg 82%
    02:00 +3°C° 0.4 mm 5 mps 732 mmHg 82%
    03:00 +4°C° 0.4 mm 4 mps 732 mmHg 83%
    04:00 +4°C° 0.4 mm 4 mps 732 mmHg 83%
    05:00 +4°C° 0.2 mm 4 mps 732 mmHg 84%
    06:00 +4°C° 0.2 mm 3 mps 733 mmHg 84%
    07:00 +4°C° 0.2 mm 3 mps 733 mmHg 85%
    08:00 +4°C° 0.2 mm 3 mps 734 mmHg 83%
    09:00 +5°C° 0.2 mm 3 mps 735 mmHg 80%
    10:00 +5°C° 0.2 mm 3 mps 735 mmHg 78%
    11:00 +6°C° 0 mm 4 mps 736 mmHg 75%
    12:00 +6°C° 0 mm 4 mps 737 mmHg 71%
    13:00 +7°C° 0 mm 4 mps 737 mmHg 68%
    14:00 +7°C° 0 mm 4 mps 738 mmHg 69%
    15:00 +7°C° 0 mm 3 mps 738 mmHg 70%
    16:00 +7°C° 0 mm 2 mps 739 mmHg 71%
    17:00 +6°C° 0 mm 2 mps 740 mmHg 74%
    18:00 +5°C° 0 mm 2 mps 740 mmHg 77%
    19:00 +4°C° 0 mm 2 mps 741 mmHg 80%
    20:00 +4°C° 0 mm 2 mps 741 mmHg 80%
    21:00 +4°C° 0 mm 1 mps 741 mmHg 80%
    22:00 +4°C° 0 mm 1 mps 741 mmHg 80%
    23:00 +5°C° 0 mm 1 mps 741 mmHg 79%

    29 October, Monday

    Time Temperature Precipitation Wind Pressure Humidity
    00:00 +5°C° 0 mm 1 mps 741 mmHg 78%
    01:00 +5°C° 0 mm 1 mps 741 mmHg 77%
    02:00 +5°C° 0.1 mm 1 mps 741 mmHg 77%
    03:00 +4°C° 0.1 mm 2 mps 741 mmHg 78%
    04:00 +4°C° 0.1 mm 2 mps 741 mmHg 78%
    05:00 +4°C° 0.2 mm 2 mps 741 mmHg 79%
    06:00 +4°C° 0.2 mm 2 mps 741 mmHg 79%
    07:00 +4°C° 0.2 mm 2 mps 741 mmHg 80%
    08:00 +4°C° 0.2 mm 2 mps 741 mmHg 78%
    09:00 +4°C° 0.2 mm 3 mps 741 mmHg 76%
    10:00 +4°C° 0.2 mm 3 mps 741 mmHg 74%
    11:00 +4°C° 0.1 mm 3 mps 741 mmHg 71%
    12:00 +5°C° 0.1 mm 4 mps 740 mmHg 68%
    13:00 +6°C° 0.1 mm 4 mps 740 mmHg 65%
    14:00 +5°C° 0.1 mm 4 mps 740 mmHg 66%
    15:00 +5°C° 0.1 mm 3 mps 739 mmHg 67%
    16:00 +5°C° 0.1 mm 3 mps 739 mmHg 68%
    17:00 +5°C° 0.2 mm 3 mps 739 mmHg 71%
    18:00 +4°C° 0.2 mm 4 mps 739 mmHg 74%
    19:00 +4°C° 0.2 mm 4 mps 738 mmHg 76%
    20:00 +4°C° 0.2 mm 4 mps 738 mmHg 78%
    21:00 +3°C° 0.2 mm 5 mps 738 mmHg 80%
    22:00 +3°C° 0.2 mm 5 mps 738 mmHg 81%
    23:00 +4°C° 0.4 mm 4 mps 737 mmHg 82%
    Show more